Miscellaneous Local Product
Issued by NWS North Platte, NE

Home | Current Version | Previous Version | Text Only | Print | Product List | Glossary On
Versions: 1 2 3 4 5 6 7 8 9 10 11 12 13 14 15 16 17 18 19 20 21 22 23 24 25 26 27 28 29 30 31 32 33 34 35 36 37 38 39 40 41 42 43 44 45 46 47 48 49 50
000
AXUS43 KLBF 300410
MISLBF


WESTERN AND NORTH CENTRAL NEBRASKA HOURLY WEATHER ROUNDUP
NATIONAL WEATHER SERVICE NORTH PLATTE NE
1100 PM CDT FRI MAY 29 2015

***STATIONS NOT REPORTING VARIABLES SUCH AS SKY/WEATHER OR
PRESSURE ARE PROVIDED BY THE NEBRASKA DEPARTMENT OF
ROADS...RAWS...AND APRS NETWORKS...AND ARE NOT UNDER
NATIONAL WEATHER SERVICE QUALITY CONTROL***

...OBSERVATIONS IN AND NEAR THE EASTERN PANHANDLE OF NEBRASKA...

CITY           SKY/WX    TMP DP  RH WIND       PRES   REMARKS
PINE RIDGE     CLEAR     45  39  79 CALM      30.29R
CHADRON        CLOUDY    48  46  93 SW3       30.30R
ALLIANCE       CLOUDY    46  44  93 N6        30.29R
SIDNEY         CLOUDY    47  44  90 N10       30.31R
WHITECLAY        N/A     43  40  89 CALM        N/A
CRESCENT LAKE    N/A     46  44  92 N8G17       N/A
BIG SPRINGS      N/A     50  46  85 N6          N/A
$$

...OBSERVATIONS IN NORTH CENTRAL NEBRASKA...

CITY           SKY/WX    TMP DP  RH WIND       PRES   REMARKS
VALENTINE      CLEAR     44  42  93 NW6       30.27R
THEDFORD       CLOUDY    47  45  90 N9        30.27R
AINSWORTH      PTCLDY    46  45  95 N7        30.25R
O`NEILL        MOCLDY    49  46  92 N13       30.21R
ORD            CLOUDY    50  46  86 N15       30.19R
BROKEN BOW     CLOUDY    50  45  83 N18G30    30.23R
BROWNLEE         N/A     48  45  88 NW14        N/A
VALENTINE NWR    N/A     44  44  99 NW10G17     N/A
SPRINGVIEW       N/A     44  40  87 CALM        N/A
HALSEY           N/A     46  45  98 NW8G20      N/A
BREWSTER         N/A     47  45  91 S7          N/A
ROSE             N/A     44  44  99 S6          N/A
NEWPORT          N/A     46  43  90 W7          N/A
SARGENT          N/A     49  45  86 N3          N/A
COMSTOCK         N/A     52  47  84 E14         N/A
EWING            N/A     48  46  92 N9G18       N/A
$$

...OBSERVATIONS IN SOUTHWEST NEBRASKA AND FAR NORTHEAST COLORADO...

CITY           SKY/WX    TMP DP  RH WIND       PRES   REMARKS
WRAY           CLOUDY    51  47  85 N8        30.28R
HOLYOKE        CLOUDY    54  46  76 N13G18    30.30R
IMPERIAL       CLOUDY    51  45  79 N13       30.27R
OGALLALA       CLOUDY    49  45  86 N12       30.29R
NORTH PLATTE   CLOUDY    49  44  83 N14       30.27R
MCCOOK         CLOUDY    53  46  77 N17       30.24R
LEXINGTON      CLOUDY    51  47  84 N14G22    30.23R
PAXTON           N/A     49  46  88 N10         N/A
GOTHENBURG       N/A     49  43  80 N14         N/A
CALLAWAY         N/A     48  46  92 N16         N/A
$$

...NORTH PLATTE AREA...

CITY           SKY/WX    TMP DP  RH WIND       PRES   REMARKS
AIRPORT        CLOUDY    49  44  83 N14       30.27R
DOWNTOWN         N/A     49  45  85 N5G13       N/A
$$

...SOME WEATHER OBSERVATIONS FROM AROUND THE REGION...

CITY           SKY/WX    TMP DP  RH WIND       PRES   REMARKS
DENVER         CLOUDY    50  44  80 E12       30.34R
LARAMIE        CLEAR     40  37  89 S5        30.35R
CHEYENNE       PTCLDY    46  43  89 N3        30.34S
SCOTTSBLUFF    CLEAR     47  44  90 CALM      30.30R
RAPID CITY     CLEAR     42  37  82 NE7       30.29R
PIERRE         PTCLDY    45  40  82 NW9       30.25R
WINNER         FAIR      43  37  79 NW8       30.25R
SIOUX FALLS    MOCLDY    49  43  80 N14       30.14F
OMAHA          CLOUDY    57  53  86 N17G31    30.05R
GRAND ISLAND   CLOUDY    52  46  80 N21       30.17R
KANSAS CITY    CLOUDY    63  62  97 S7        29.99R
WICHITA        MOCLDY    69  65  86 S3        29.99R
HAYS           CLOUDY    57  46  67 N25       30.14R
LIBERAL        MOCLDY    61  52  72 N14       30.17R
GOODLAND       CLOUDY    52  48  86 N17       30.24R
$$



USA.gov is the U.S. government's official web portal to all federal, state and local government web resources and services.